Regional Weather Roundup
Issued by NWS

Home | Current Version | Previous Version | Text Only | Print | Product List | Glossary Off
Versions: 1 2 3 4 5 6 7 8 9 10 11 12 13 14 15 16 17 18 19 20 21 22 23 24 25 26 27 28 29 30 31 32 33 34 35 36 37 38 39 40 41 42 43 44 45 46 47 48 49 50

000
ASUS43 KFSD 211510
RWRSD

WEATHER ROUNDUP FOR SOUTH DAKOTA
NATIONAL WEATHER SERVICE SIOUX FALLS SD
1000 AM CDT THU AUG 21 2014

NOTE: "FAIR" INDICATES FEW OR NO CLOUDS BELOW 12,000 FEET WITH NO
SIGNIFICANT WEATHER AND/OR OBSTRUCTIONS TO VISIBILITY.


SDZ001>005-009-010-012>017-211600-
NORTHWEST AND NORTH CENTRAL SOUTH DAKOTA

CITY           SKY/WX    TMP DP  RH WIND       PRES   REMARKS
BUFFALO          N/A     70  58  65 NW14      29.89R
FAITH            N/A     68  60  75 N10       29.91R
MOBRIDGE       MOSUNNY   69  66  90 NW9       29.82S
$$

SDZ012>016-024>037-041>051-057-063-072>074-211600-
SOUTHWEST AND SOUTH CENTRAL SOUTH DAKOTA

CITY           SKY/WX    TMP DP  RH WIND       PRES   REMARKS
RAPID CTY ARPT PTSUNNY   68  62  81 CALM      29.97R
PIERRE         MOSUNNY   72  65  78 N9        29.84R
CUSTER         CLOUDY    64  53  67 CALM      30.08R
ELLSWORTH AFB  CLOUDY    70  58  66 N8        29.97R
PHILIP         MOSUNNY   74  60  61 N6        29.91R
PINE RIDGE     MOSUNNY   70  61  73 CALM      29.97S
WINNER         PTSUNNY   71  64  78 NW8       29.88R
$$

SDZ004>011-016>023-039-040-211600-
NORTHEAST SOUTH DAKOTA

CITY           SKY/WX    TMP DP  RH WIND       PRES   REMARKS
ABERDEEN       MOSUNNY   70  66  87 W9        29.77S
WATERTOWN      SUNNY     74  69  85 SW8       29.77S
SISSETON         N/A     74  70  87 S6        29.73S
$$

SDZ017-020-022-023-036>040-048>070-211600-
SOUTHEAST SOUTH DAKOTA

CITY           SKY/WX    TMP DP  RH WIND       PRES   REMARKS
SIOUX FALLS    PTSUNNY   79  69  71 SW7       29.76F
HURON          SUNNY     76  67  73 CALM      29.77S
CHAMBERLAIN    PTSUNNY   70  65  85 NW7       29.85R
MITCHELL       CLOUDY    74  69  85 W5        29.80R
YANKTON        MOSUNNY   81  66  61 W12       29.76F
$$

ABBREVIATIONS USED IN REMARKS
   TC - TEMPERATURE IN CELSIUS
  WCI - WIND CHILL INDEX
   HX - HEAT INDEX
  VSB - VISIBILITY



USA.gov is the U.S. government's official web portal to all federal, state and local government web resources and services.